Regional Weather Roundup
Issued by NWS

Home | Current Version | Previous Version | Graphics & Text | Print | Product List | Glossary On
Versions: 1 2 3 4 5 6 7 8 9 10 11 12 13 14 15 16 17 18 19 20 21 22 23 24 25 26 27 28 29 30 31 32 33 34 35 36 37 38 39 40 41 42 43 44 45 46 47 48 49 50
671
ASUS43 KBIS 251810
RWRND

NORTH DAKOTA REGIONAL WEATHER ROUNDUP
NATIONAL WEATHER SERVICE BISMARCK ND
100 PM CDT SUN JUN 25 2017

NOTE: "FAIR" INDICATES FEW OR NO CLOUDS BELOW 12,000 FEET WITH NO
SIGNIFICANT WEATHER AND/OR OBSTRUCTIONS TO VISIBILITY.


NDZ001>003-009>011-017-251900-
NORTHWEST NORTH DAKOTA

CITY           SKY/WX    TMP DP  RH WIND       PRES   REMARKS
WILLISTON      PTSUNNY   68  47  46 VRB3      30.27F
6HR MIN TEMP:  51; 6HR MAX TEMP:  70; 6HR PCP:  0.14;

MINOT          MOSUNNY   67  45  45 VRB7      30.24S
MINOT AFB      MOSUNNY   66  43  43 NE9       30.23S
$$

NDZ018>021-031>035-040>046-251900-
SOUTHWEST NORTH DAKOTA

CITY           SKY/WX    TMP DP  RH WIND       PRES   REMARKS
BISMARCK       CLOUDY    54  49  83 SW6       30.27F
6HR MIN TEMP:  47; 6HR MAX TEMP:  56; 6HR PCP:  0.06;

DICKINSON      CLOUDY    66  33  29 VRB5      30.25F
GARRISON         N/A     62  49  62 W7        30.24F
6HR MIN TEMP:  50; 6HR MAX TEMP:  62; 6HR PCP:  0.05;

HETTINGER ARPT CLOUDY    71  37  28 NE14      30.26S
$$

NDZ004>008-012>016-024-026-027-054-251900-
NORTHEAST NORTH DAKOTA

CITY           SKY/WX    TMP DP  RH WIND       PRES   REMARKS
GRAND FORKS    PTSUNNY   64  45  49 N10G23    30.21F
GRND FRKS AFB  MOSUNNY   64  45  50 N12       30.22F
DEVILS LAKE    MOSUNNY   61  43  51 N8G17     30.25S
$$

NDZ022-023-025-028>030-036>039-047>053-251900-
SOUTHEAST NORTH DAKOTA

CITY           SKY/WX    TMP DP  RH WIND       PRES   REMARKS
FARGO          PTSUNNY   66  44  45 NW15G22   30.21F
6HR MIN TEMP:  49; 6HR MAX TEMP:  67;

JAMESTOWN      CLOUDY    63  44  50 NW5       30.24F
$$





USA.gov is the U.S. government's official web portal to all federal, state and local government web resources and services.